Location: St. Louis
(38.6270°N, 90.1994°W)
Time: 13:33:42
(UTC-06:00)

Vanguard 3 - Visible Passes

Search period start: 29 January 2023 00:00
Search period end: 08 February 2023 00:00
Orbit: 509 x 3252 km, 33.4° (Epoch: 29 January)

Date Brightness Start Highest point End Pass type
(mag) Time Alt. Az. Time Alt. Az. Time Alt. Az.
29 Jan 11.3 01:24:15 11° SE 01:24:15 11° SE 01:24:49 10° SE visible
29 Jan 10.7 03:28:44 24° S 03:28:44 24° S 03:35:00 10° SSE visible
29 Jan 9.5 19:08:03 10° SW 19:17:57 48° SSE 19:24:53 32° E visible
29 Jan 9.6 21:18:50 10° WSW 21:29:20 63° SW 21:29:20 63° SW visible
29 Jan 11.1 23:31:50 10° W 23:33:47 16° W 23:33:47 16° W visible
30 Jan 11.0 02:17:51 18° SSE 02:17:51 18° SSE 02:20:45 10° SSE visible
30 Jan 10.9 04:22:20 15° SSW 04:22:20 15° SSW 04:26:45 10° SSW visible
30 Jan 9.8 17:54:39 10° SSW 18:02:24 31° SE 18:13:48 11° E visible
30 Jan 9.4 20:03:47 10° WSW 20:14:56 64° SSE 20:18:15 55° ESE visible
30 Jan 10.2 22:15:40 10° W 22:22:42 40° WSW 22:22:42 40° WSW visible
31 Jan11.501:06:59SE01:06:59SE00:27:09Wvisible
31 Jan 11.0 03:11:26 18° S 03:11:26 18° S 03:15:06 10° S visible
31 Jan 9.4 18:49:27 10° SW 18:58:33 49° SSE 19:07:09 26° E visible
31 Jan 9.4 21:00:09 10° WSW 21:11:36 71° SSW 21:11:36 71° SSW visible
31 Jan 10.8 23:12:48 10° W 23:16:02 21° W 23:16:02 21° W visible
01 Feb 11.3 02:00:31 11° SSE 02:00:31 11° SSE 02:00:53 10° SSE visible
01 Feb 11.1 04:04:58 11° SSW 04:04:58 11° SSW 04:05:53 10° SSW visible
01 Feb 9.6 17:35:59 10° SSW 17:43:07 32° SE 17:54:25 10° E visible
01 Feb 9.3 19:45:13 10° WSW 19:55:27 65° SSE 20:00:28 47° ESE visible
01 Feb 9.9 21:56:53 10° W 22:04:54 48° WSW 22:04:54 48° WSW visible
02 Feb 11.2 02:54:01 12° S 02:54:01 12° S 02:54:52 10° S visible
02 Feb 9.2 18:30:56 10° SW 18:39:15 51° SSE 18:49:18 20° E visible
02 Feb 9.3 20:41:32 10° WSW 20:52:58 72° S 20:53:45 71° SSE visible
02 Feb 10.6 22:53:52 10° W 22:58:12 26° W 22:58:12 26° W visible
03 Feb 9.1 19:26:43 10° WSW 19:36:06 66° SSE 19:42:35 39° ESE visible
03 Feb 9.7 21:38:09 10° W 21:47:01 56° WSW 21:47:01 56° WSW visible
03 Feb 11.2 23:51:14 10° W 23:51:28 11° W 23:51:28 11° W visible
04 Feb 9.0 18:12:29 10° SW 18:20:03 52° SSE 18:31:24 15° E visible
04 Feb 9.2 20:22:59 10° W 20:33:29 71° S 20:35:50 63° SE visible
04 Feb 10.4 22:35:02 10° W 22:40:17 31° W 22:40:17 31° W visible
05 Feb 9.0 19:08:17 10° WSW 19:16:52 66° S 19:24:40 31° E visible
05 Feb 9.5 21:19:30 10° W 21:29:06 62° SW 21:29:06 62° SW visible
05 Feb 11.0 23:32:19 10° W 23:33:33 14° W 23:33:33 14° W visible
06 Feb 8.9 17:54:03 10° SW 18:00:59 53° SSE 18:13:17 10° E visible
06 Feb 9.1 20:04:29 10° W 20:14:07 69° S 20:17:56 53° ESE visible
06 Feb 10.2 22:16:17 10° W 22:22:22 36° WSW 22:22:22 36° WSW visible
07 Feb 8.8 18:49:53 10° WSW 18:57:43 66° S 19:06:46 24° E visible
07 Feb 9.3 21:00:55 10° W 21:11:12 63° SSW 21:11:12 63° SSW visible
07 Feb 10.9 23:13:33 10° W 23:15:39 17° W 23:15:39 17° W visible
